Wind_Speed
12 14 15 15 15 15 15 14 15 17 19 20 21 24 27 31 34 37 40 44 49 54 59 64 69 73 77 79 81 84 85 86 86 83 78 74 71 71 71 70 68 66 63 60
12 13 14 15 15 16 16 16 17 18 19 20 21 23 27 31 34 38 43 47 53 57 62 68 72 76 78 80 82 84 86 86 83 79 76 73 72 71 69 66 63 59 56 54
14 15 15 15 16 17 17 17 18 18 19 22 23 22 28 31 36 41 46 51 56 60 66 71 74 77 79 81 83 84 85 83 79 76 74 72 71 68 63 58 54 53 51 50
14 15 16 16 16 17 17 17 18 19 20 24 26 26 30 35 40 45 49 54 58 63 68 72 75 77 79 81 83 84 84 80 77 75 74 73 69 63 58 53 51 51 52 51
14 16 16 16 17 18 18 18 19 21 22 24 26 29 33 38 43 48 52 56 60 65 70 72 74 77 79 81 83 83 81 77 75 75 74 71 66 59 54 51 52 53 54 54
15 16 17 17 18 19 20 21 21 22 23 24 28 32 36 41 45 49 53 57 61 66 70 72 74 77 79 81 82 81 77 75 75 75 72 68 62 56 53 53 54 54 55 55
16 17 18 18 19 20 22 23 24 25 26 28 31 34 38 42 47 51 55 58 62 66 69 72 75 77 79 81 81 78 75 74 74 73 70 64 59 55 55 57 58 58 58 57
17 18 19 20 20 22 24 25 27 29 30 30 32 36 40 44 48 52 56 59 63 67 70 73 75 77 79 80 79 76 73 73 73 71 67 61 58 57 59 61 62 63 62 61
18 19 20 21 23 25 27 27 28 30 32 34 36 39 42 46 50 53 56 60 64 68 71 73 75 77 79 79 77 74 72 72 72 69 64 60 58 60 62 64 66 66 66 65
20 21 21 23 24 27 28 29 31 32 36 40 40 41 44 47 50 54 57 61 65 69 71 73 75 77 78 77 74 72 72 72 70 67 63 60 60 62 65 67 69 70 70 69
21 22 23 24 26 28 30 31 32 34 36 40 43 42 44 47 50 54 58 62 66 69 71 73 75 77 77 75 72 70 70 70 68 66 62 61 62 64 67 69 72 73 72 68
23 24 24 26 28 29 30 32 33 35 38 40 42 43 45 47 50 54 58 62 66 69 71 73 74 75 74 72 70 69 69 69 67 65 62 61 63 66 68 71 74 75 72 63
23 26 27 28 29 31 32 33 35 36 38 39 40 41 44 47 50 54 59 63 66 69 71 72 73 73 72 70 69 68 68 67 66 65 62 62 64 67 69 73 75 75 70 58
24 26 30 32 33 35 36 36 36 37 38 38 38 40 43 46 50 54 59 63 66 69 70 71 72 72 71 69 68 67 67 66 66 64 63 63 65 68 70 74 76 75 67 54
22 25 30 33 35 36 38 38 38 37 38 38 38 39 42 46 50 54 59 63 66 68 69 69 70 71 69 67 66 66 66 65 65 64 63 64 67 69 71 73 76 74 65 51
20 23 28 31 34 36 39 41 41 40 40 39 39 40 42 46 50 54 59 63 66 67 67 68 69 69 68 66 65 64 64 64 64 64 64 65 67 69 71 73 75 74 65 51
19 22 26 30 34 38 42 45 45 43 42 42 41 42 44 47 50 55 59 62 64 65 66 67 68 68 67 65 64 63 63 63 63 63 63 65 67 69 70 72 74 73 67 53
19 23 27 31 36 40 44 47 49 47 44 44 43 44 45 48 51 55 58 61 64 65 65 66 67 67 65 64 63 62 62 61 61 62 63 64 66 68 70 71 72 72 69 58
19 24 28 33 37 40 45 49 51 52 48 48 47 46 47 49 51 54 58 61 63 64 64 65 66 66 64 63 61 60 60 60 59 60 61 63 65 66 69 70 71 71 70 63
19 23 28 32 37 42 46 49 52 54 54 53 50 49 48 49 51 54 57 60 62 63 63 64 65 65 63 61 59 58 58 58 58 59 60 61 63 65 67 69 71 71 69 67
19 23 26 31 35 39 45 49 52 54 56 55 52 50 49 49 50 53 57 60 62 62 62 63 63 63 62 60 58 57 57 56 56 57 58 59 61 64 66 68 70 70 69 67
22 25 29 33 37 41 45 48 51 54 57 56 54 52 51 50 51 53 56 59 61 62 62 62 62 62 61 58 57 55 55 55 55 55 56 57 59 61 64 65 67 68 68 66
23 25 28 32 35 39 43 46 50 53 56 57 55 53 52 51 51 52 56 59 61 61 61 61 61 61 59 57 55 54 54 53 53 53 54 55 57 59 61 62 64 65 65 65
24 26 29 32 35 39 43 46 49 52 55 58 57 54 53 51 51 52 56 59 60 60 60 60 60 60 58 57 54 53 52 52 51 51 51 52 54 56 58 60 61 62 63 63
27 29 30 32 36 39 42 46 49 52 55 58 59 56 54 52 51 52 55 58 59 59 59 59 59 58 57 56 53 52 50 50 50 50 49 50 51 53 56 58 59 60 61 62
29 31 33 35 38 41 44 47 49 52 54 58 60 58 55 53 52 52 54 57 59 59 58 58 58 57 56 55 53 51 49 49 48 48 48 48 49 50 52 55 57 59 59 60
Wind_Direction
339 336 330 326 324 323 323 323 324 325 326 324 324 325 322 322 323 324 326 327 328 328 329 329 330 330 331 329 327 325 324 322 321 320 319 318 317 315 313 312 310 309 307 304
339 335 332 331 330 330 333 335 333 329 325 324 328 328 321 322 324 328 330 332 332 331 331 332 333 333 331 329 327 326 325 324 323 322 321 321 320 318 317 316 315 314 312 310
338 337 337 337 337 337 338 336 332 330 329 329 332 329 323 326 330 333 335 335 334 333 334 334 335 333 331 329 328 327 326 325 325 324 323 323 322 321 319 319 318 317 315 314
338 340 341 341 340 339 337 336 334 335 336 334 332 332 331 334 335 336 337 336 336 335 336 336 335 333 331 330 329 328 328 327 326 326 325 325 324 323 322 322 321 319 317 315
344 345 344 344 342 341 340 341 340 340 339 334 333 336 337 337 338 338 338 338 338 337 337 336 335 334 332 331 331 330 330 329 328 328 328 328 327 326 326 325 323 321 317 314
352 350 348 346 346 345 344 343 342 340 340 338 341 339 338 340 339 339 339 339 339 339 338 337 336 335 333 333 332 332 331 330 330 330 330 330 329 328 327 325 323 320 317 313
359 354 352 350 349 347 345 343 342 341 345 344 342 340 339 339 340 341 340 340 340 339 338 338 337 335 335 334 334 333 333 332 332 332 332 331 331 330 328 326 324 321 317 312
2 358 355 353 351 348 347 345 343 341 340 341 341 342 340 340 342 341 340 340 340 340 340 339 338 337 337 336 335 335 335 334 334 335 334 333 332 331 330 329 327 323 319 315
10 5 360 355 352 349 347 345 343 338 336 338 343 342 340 342 342 340 340 341 342 342 341 340 339 339 338 337 337 336 337 337 337 337 336 336 335 334 333 332 330 327 322 318
16 9 4 358 353 350 346 344 341 339 338 338 340 342 341 341 340 339 341 342 343 343 342 341 341 340 339 338 338 339 339 339 340 339 339 338 338 337 337 336 333 331 327 322
22 15 8 1 355 349 346 343 341 339 338 336 337 342 339 340 339 340 342 344 344 343 343 342 342 341 340 340 340 340 341 341 342 342 341 341 341 341 341 340 338 336 332 328
28 22 14 7 1 355 350 346 343 341 339 337 336 339 339 339 339 341 344 344 345 344 344 343 343 342 341 341 342 342 343 344 345 345 345 344 345 345 345 344 344 342 340 337
28 25 21 15 8 2 357 352 347 343 340 338 336 338 338 339 341 343 345 345 345 345 345 344 343 343 343 343 344 344 345 347 348 348 348 348 348 349 349 350 350 349 348 347
26 23 19 16 12 8 5 359 352 346 342 341 339 338 338 341 343 344 345 346 346 346 346 345 344 344 344 345 346 346 347 349 351 351 351 351 352 353 354 355 356 355 355 357
23 21 18 15 13 10 8 4 357 351 347 344 342 340 341 342 344 345 346 347 347 347 346 345 345 345 346 347 347 348 350 352 353 354 354 355 356 358 359 360 1 1 2 4
18 17 16 13 11 9 8 7 2 356 352 350 346 344 343 344 345 346 347 348 348 347 346 346 346 347 348 348 349 350 352 354 356 357 357 358 360 1 2 4 5 7 8 10
11 10 10 10 9 7 7 6 5 0 356 353 349 347 345 346 347 347 348 348 348 347 347 346 347 349 349 350 351 352 354 357 359 360 0 2 2 4 6 8 9 11 12 13
4 3 4 5 6 7 5 5 5 3 358 354 351 348 347 347 347 348 348 348 348 348 347 347 349 350 351 352 353 354 356 358 0 2 3 4 5 7 9 11 12 14 16 17
358 358 359 1 2 2 3 3 2 1 359 356 352 350 348 348 348 348 348 348 348 348 348 349 350 351 352 353 354 356 357 360 2 4 6 7 8 9 11 13 15 17 19 20
351 355 355 357 358 358 359 0 0 359 359 356 353 350 348 347 348 348 348 349 349 349 349 350 351 352 353 354 355 357 359 1 2 5 8 10 10 11 13 15 17 19 21 22
341 349 351 352 354 356 357 357 357 358 356 355 352 350 348 347 348 348 349 349 349 350 350 351 352 353 354 355 356 357 359 1 3 6 10 11 12 13 14 16 18 19 21 23
333 342 347 349 351 353 353 353 355 355 355 354 351 349 347 347 347 348 349 350 350 350 351 351 352 354 355 356 357 358 360 2 4 7 10 12 13 14 16 17 18 20 22 23
323 335 341 344 346 347 348 350 351 352 353 353 351 349 347 346 347 348 349 350 351 351 351 352 353 354 356 357 357 359 0 2 5 7 10 12 14 15 17 18 19 20 22 24
314 326 333 337 340 343 344 346 348 349 350 351 351 348 347 346 347 348 349 350 351 351 352 352 353 355 356 357 358 359 0 3 5 7 9 11 13 14 16 18 19 20 22 24
308 318 326 331 335 339 341 343 345 346 348 349 350 348 347 346 346 347 349 350 351 352 352 352 353 355 356 358 358 359 0 3 5 7 9 11 12 13 15 17 18 20 21 23
301 312 320 327 330 335 337 340 342 343 346 347 349 348 346 346 346 347 348 350 351 352 352 352 353 354 356 357 359 359 359 2 5 7 9 10 12 13 14 15 16 18 20 22
Height
5895 5893 5890 5888 5885 5883 5880 5877 5874 5870 5867 5864 5860 5856 5851 5846 5841 5835 5829 5821 5811 5801 5790 5778 5766 5752 5736 5721 5706 5691 5676 5659 5642 5626 5611 5597 5582 5568 5553 5539 5526 5515 5505 5497
5895 5892 5889 5886 5882 5879 5876 5873 5870 5867 5864 5861 5858 5853 5848 5842 5837 5830 5822 5812 5802 5791 5780 5768 5754 5738 5724 5709 5693 5677 5660 5642 5625 5609 5594 5580 5565 5551 5537 5523 5510 5499 5490 5482
5893 5891 5886 5883 5879 5876 5873 5871 5868 5865 5862 5857 5855 5851 5844 5838 5831 5823 5814 5804 5793 5782 5770 5756 5742 5727 5712 5696 5679 5662 5644 5626 5610 5594 5580 5566 5552 5537 5524 5512 5500 5488 5479 5470
5891 5888 5885 5881 5878 5874 5872 5869 5866 5862 5859 5854 5851 5847 5840 5833 5824 5816 5806 5796 5785 5773 5760 5746 5732 5716 5700 5683 5665 5647 5629 5612 5596 5580 5566 5551 5537 5524 5512 5500 5489 5478 5467 5458
5889 5886 5883 5879 5876 5873 5870 5866 5863 5859 5855 5851 5846 5841 5836 5827 5818 5809 5799 5788 5777 5764 5751 5737 5722 5706 5688 5670 5652 5634 5616 5599 5583 5567 5552 5537 5523 5510 5499 5489 5478 5467 5456 5445
5887 5884 5881 5878 5874 5871 5867 5864 5860 5857 5853 5848 5842 5835 5829 5821 5813 5803 5792 5781 5769 5756 5742 5727 5711 5694 5677 5659 5641 5622 5605 5588 5572 5556 5540 5525 5512 5500 5489 5479 5468 5456 5445 5433
5886 5883 5880 5876 5873 5869 5865 5862 5858 5853 5848 5844 5837 5830 5824 5816 5806 5796 5785 5774 5762 5749 5734 5718 5702 5685 5667 5649 5631 5613 5595 5579 5562 5545 5529 5514 5501 5489 5478 5466 5455 5442 5430 5418
5884 5882 5878 5875 5871 5867 5863 5859 5854 5848 5843 5840 5833 5825 5819 5809 5799 5789 5778 5767 5755 5741 5725 5710 5693 5676 5658 5639 5621 5603 5587 5570 5553 5536 5520 5505 5492 5479 5467 5453 5439 5425 5411 5399
5884 5881 5877 5873 5869 5865 5860 5856 5851 5845 5839 5833 5827 5820 5811 5802 5793 5783 5773 5761 5747 5732 5717 5701 5684 5666 5648 5630 5612 5595 5578 5561 5544 5527 5512 5497 5484 5470 5456 5441 5425 5408 5392 5376
5883 5880 5876 5872 5868 5863 5858 5852 5847 5841 5833 5826 5821 5815 5806 5797 5788 5778 5766 5754 5739 5725 5709 5692 5675 5658 5640 5622 5604 5586 5570 5553 5536 5519 5503 5489 5475 5461 5445 5429 5411 5392 5373 5354
5882 5879 5875 5871 5866 5861 5856 5850 5844 5837 5830 5822 5815 5812 5802 5793 5782 5772 5760 5746 5732 5717 5701 5685 5668 5650 5632 5614 5596 5580 5564 5547 5530 5514 5498 5483 5468 5453 5436 5418 5398 5377 5355 5333
5882 5879 5874 5870 5865 5859 5853 5847 5841 5835 5827 5818 5810 5807 5796 5787 5777 5765 5753 5739 5725 5710 5694 5678 5661 5643 5626 5608 5592 5575 5559 5542 5525 5509 5493 5477 5462 5446 5428 5409 5387 5364 5340 5317
5882 5878 5874 5869 5865 5858 5851 5844 5836 5829 5822 5815 5807 5802 5790 5781 5770 5759 5746 5733 5718 5703 5687 5671 5654 5638 5621 5604 5587 5571 5554 5538 5521 5504 5489 5473 5457 5440 5422 5401 5378 5354 5330 5308
5880 5876 5872 5867 5861 5854 5848 5841 5833 5825 5818 5810 5803 5795 5785 5775 5764 5752 5740 5727 5712 5697 5681 5666 5650 5633 5616 5599 5583 5567 5551 5534 5518 5501 5485 5470 5453 5435 5416 5395 5372 5348 5325 5305
5879 5875 5869 5864 5858 5852 5846 5839 5831 5822 5814 5806 5798 5789 5780 5769 5758 5747 5734 5721 5706 5692 5676 5661 5646 5629 5612 5595 5579 5564 5547 5531 5515 5499 5483 5467 5450 5432 5413 5393 5371 5347 5325 5307
5878 5874 5869 5864 5858 5851 5845 5837 5828 5818 5809 5801 5793 5784 5774 5764 5753 5741 5729 5715 5701 5687 5672 5657 5642 5625 5609 5593 5577 5561 5545 5530 5513 5497 5481 5465 5449 5431 5413 5393 5372 5349 5329 5312
5875 5872 5867 5862 5856 5849 5841 5833 5825 5815 5805 5797 5788 5779 5769 5758 5747 5736 5723 5710 5697 5683 5668 5653 5638 5622 5606 5590 5575 5559 5544 5528 5513 5497 5481 5465 5449 5432 5414 5395 5375 5355 5335 5319
5873 5868 5863 5858 5853 5844 5840 5829 5820 5812 5802 5792 5783 5773 5763 5753 5742 5731 5719 5706 5693 5679 5664 5649 5634 5618 5602 5587 5572 5557 5542 5528 5513 5499 5483 5467 5452 5435 5418 5400 5381 5362 5343 5327
5869 5864 5859 5853 5847 5841 5834 5825 5816 5807 5799 5789 5778 5768 5758 5748 5738 5727 5715 5702 5689 5675 5661 5646 5631 5616 5600 5586 5571 5557 5543 5528 5515 5501 5486 5470 5455 5439 5423 5406 5388 5370 5353 5336
5866 5861 5856 5850 5842 5836 5831 5822 5812 5804 5794 5785 5774 5764 5754 5744 5734 5724 5711 5699 5686 5672 5658 5643 5628 5613 5598 5584 5570 5557 5543 5530 5517 5503 5488 5473 5458 5444 5428 5412 5395 5378 5362 5346
5862 5858 5853 5847 5840 5834 5827 5817 5809 5800 5793 5781 5770 5760 5751 5741 5731 5720 5707 5695 5682 5669 5655 5641 5626 5612 5597 5583 5570 5557 5544 5531 5518 5504 5490 5477 5463 5449 5433 5417 5402 5386 5370 5355
5856 5853 5848 5841 5835 5830 5822 5814 5806 5799 5788 5777 5766 5756 5747 5736 5726 5715 5704 5692 5679 5666 5652 5638 5624 5610 5596 5582 5569 5557 5544 5532 5519 5506 5493 5481 5468 5454 5440 5426 5411 5397 5382 5368
5852 5849 5843 5839 5835 5827 5819 5811 5804 5795 5785 5774 5763 5753 5742 5732 5722 5711 5700 5688 5676 5663 5650 5636 5622 5609 5595 5582 5569 5558 5545 5533 5521 5508 5496 5484 5473 5461 5447 5434 5421 5408 5394 5380
5846 5843 5839 5834 5829 5823 5815 5807 5800 5791 5781 5771 5760 5749 5739 5728 5718 5708 5697 5685 5673 5660 5647 5634 5621 5608 5595 5582 5570 5558 5546 5535 5523 5511 5500 5489 5477 5466 5454 5442 5429 5417 5404 5390
5840 5837 5833 5829 5824 5819 5812 5804 5796 5787 5777 5767 5756 5745 5735 5725 5714 5704 5693 5682 5670 5657 5645 5632 5620 5607 5594 5582 5570 5559 5548 5536 5525 5514 5504 5492 5481 5470 5459 5447 5436 5423 5410 5398
5833 5830 5826 5823 5818 5812 5806 5799 5791 5783 5773 5764 5753 5742 5731 5721 5711 5701 5690 5679 5667 5655 5643 5631 5618 5606 5594 5582 5571 5560 5549 5539 5528 5518 5507 5497 5486 5475 5463 5451 5440 5428 5417 5405